Погода в Георгиевске

Поиск расширенной информации на нашем сайте:

Полезная информация:

Новости сайта



02.01.2020
Опубликован Долгосрочный прогноз погоды по городам России и ближнего зарубежья на январь 2020 года.
Карты: Прогноз на январь и февраль 2020 года, Сравнение прогнозируемой аномалии приземной температуры воздуха на январь 2020 года по разным моделям.




Погода в Георгиевске - сегодня

Время (UTC), дата Ветер
(°,м/с) 
Видим.   Явления Облачность Т
(°С)
Тd
(°С)
f(%) Тe
(°С)
Pmin
(гПа)
dP
(гПа)
Po
(мм)
O2
(г/м3)
Тmin Tmax R s Состояние
почвы
15 18.10.20 тихо ()   20000 м    ясно 
+16.2 +9.6 65 +17  1014.9  0.7  735  278    +26.2       
18 18.10.20 тихо ()   20000 м    ясно 
+11.7 +8.4 80 +12  1016  0.6  736  283           
21 18.10.20 270 (З) 20000 м    ясно 
+9.8 +5.4 74 +11  1016  -0.3  736  285           
00 19.10.20 тихо ()   20000 м    ясно 
+8.7 +5.1 78 +9  1016.8  0.6  736  287           
03 19.10.20 250 (З) 20000 м    ясно 
+12.6 +7 69 +14  1017.5  0.6  737  283  +8.6        сухая 
06 19.10.20 290 (З) 20000 м    5/0 верхняя 
[Ci]
+19.4 +9.8 54 +21  1016.7  737  275           
09 19.10.20 010 (С) 20000 м    10/0 верхняя 
[Ci]
+23.5 +8.5 38 +24  1014.5  -1.6  736  271           
12 19.10.20 040 (СВ) 20000 м    10/0 средняя, верхняя 
[Ac trans|Ci]
+23.6 +6.1 32 +24  1013.8  -0.7  735  272           
15 19.10.20 тихо ()   20000 м    10/5 1000 м средняя 
[Sc|Ac trans]
+18.2 +9.6 57 +19  1014.2  -0.2  735  276    +24.3       
18 19.10.20 300 (СЗ) 4{10}  4000 м  гроза, ливневой дождь  10/10 600 м кучево-дожд. 
[Cb cap]
+15.8 +14.4 91 +24  1018.2  3.6  738  278           
21 19.10.20 300 (СЗ) 20000 м  {гроза, ливн. осадки}  4/0 средняя 
[Ac trans]
+13.5 +11.1 85 +17  1020.2  1.6  739  282           
00 20.10.20 290 (З) 20000 м  {гроза, ливн. осадки}  5/0 средняя 
[Ac trans]
+12.8 +8.8 77 +13  1021.7  1.4  740  283           
03 20.10.20 320 (СЗ) 2{10}  20000 м    4/4 600 м 
[Sc]
+11.3 +8.3 82 +12  1024.1  2.1  742  285  +11.3      влажная 
06 20.10.20 350 (С) 20000 м    8/8 1000 м 
[Sc]
+11.3 +7.1 75 +12  1025.8  1.6  743  286  +10.7         
09 20.10.20 160 (Ю) 20000 м    10/8 600 м средняя 
[Sc|Ac und]
+13 +7.5 69 +14  1025.2  -0.4  743  284           
12 20.10.20 170 (Ю) 20000 м    8/5 1000 м средняя 
[Sc|Ac As]
+14.6 +7 60 +16  1024.3  -0.7  742  283           
15 20.10.20 150 (ЮВ) 20000 м    10/10 600 м 
[Sc]
+13.2 +7.5 68 +14  1024.6  0.1  742  284    +14.8       
18 20.10.20 тихо ()   20000 м    10/10 600 м 
[Sc]
+12.3 +7.9 74 +12  1025.1  0.4  742  285           
21 20.10.20 тихо ()   20000 м    10/0 
[Sc]
+11.5 +7.8 78 +12  1026.5  1.3  743  286           
00 21.10.20 тихо ()   20000 м    10/10 600 м 
[Sc]
+10.9 +6.1 72 +11  1027.2  0.6  744  287           
03 21.10.20 300 (СЗ) 20000 м    10/10 600 м 
[Sc]
+9.7 +5.1 73 +11  1028.8  1.4  745  289  +9.4         
06 21.10.20 тихо ()   20000 м    6/0 средняя 
[Ac trans]
+11.6 +3.9 59 +12  1030  1.4  746  288           
09 21.10.20 270 (З) 20000 м    8/5 600 м средняя 
[Sc|Ac trans]
+14 +4.3 52 +15  1028.5  -1.1  745  285           
12 21.10.20 тихо ()   20000 м    4/0 средняя 
[Ac trans]
+16.2 +4.5 46 +16  1027.6  -0.7  744  282           
15 21.10.20 тихо ()   20000 м    4/4 600 м 
[Sc]
+10.2 +5.2 71 +10  1028  -0.3  744  288    +16.6       
Время (UTC), дата Ветер
(°,м/с) 
Видим.   Явления Облачность Т
(°С)
Тd
(°С)
f(%) Тe
(°С)
Pmin
(гПа)
dP
(гПа)
Po
(мм)
O2
(г/м3)
Тmin Tmax R s Состояние
почвы

Для получения пояснительной информации подведите курсор к названию столбца.

ПОГОДА в Георгиевске - архив

Всё, что Вы хотите узнать о погоде в Георгиевске - удобно и подробно!

Выберите нужную дату (начиная с 1 января 2019* года) и нажмите кнопку "Найти".
Будут отображены архивные сводки погоды по пункту Георгиевск, начиная с указанной даты.


Отображать данные в формате CSV (для использования в таблицах Excel)


Внимание! Наш архив погоды предназначен исключительно для личного некоммерческого использования в познавательных целях. Если Вам необходимы официальные справки о состоянии погоды (для производственных, юридических, коммерческих и т.п. целей), обращайтесь в органы Росгидромета.

*Примечание: данная дата относится к архиву по метеостанциям СССР (Россия, СНГ, Балтия).
Архив по метеостанциям Зарубежной Европы и Азии (кроме Китая) хранится 10 дней, по другим регионам земного шара (Китай, Африка, Америка, Австралия, Океания) - 1 день.

Георгиевск - район местоположения метеостанции


Название, широта, долгота, высота метеостанции:
Георгиевск 44.2°ш. 43.5°д. 302 м над ур. моря [Российская Федерация]

Дополнительная информация

В oтличие oт бoльшинства пoгoдных сайтoв мы публикуем пoдрoбную метеoинфoрмацию в детальнoм прoфессиoнальнoм фoрмате.

Характеристики температуры и влажнoсти вoздуха измеряются на высoте 2 м в тени вдали oт зданий и деревьев.
Скoрoсть ветра измеряется на высoте 10 м (на урoвне рoста челoвека скoрoсть ветра ниже в 1.5-2 раза). Если метеoстанция нахoдится в гoрoде или в лесу, тo скoрoсть ветра занижена на 2-4 м/с пo сравнению с oткрытым местoм. Скoрoсть ветра над акватoриями крупных рек и oзёр, а также на вершинах хoлмoв на 2-5 м/с выше, чем в oбычных услoвиях.
Атмoсфернoе давление в разных тoчках местнoсти мoжет значительнo oтличаться oт давления на метеoстанции, в зависимoсти oт услoвий рельефа (при пoдъёме на 10 м давление пoнижается примернo на 1 мм рт.ст.).